Location: Black Swamp Observatory
(41.3920°N, 84.1250°W)
Time: 06:58:33
(UTC-05:00)

Amateur Radio Satellites - All Passes

Search period start: 19 December 2014 06:28
Search period end: 20 December 2014 06:28
Location: Black Swamp Observatory, 41.3920°N, 84.1250°W

Satellite Date Start Highest point End Downlink Frequencies (MHz)
Time Altitude Azimuth
PRISM 19 Dec 06:31:21 06:35:20 40° 261° (W) 06:39:20 437.425
Cubesat XI-IV 19 Dec 07:17:33 07:22:52 74° 286° (WNW) 07:28:09 437.490
GONETS M04 19 Dec 07:27:47 07:36:06 44° 286° (WNW) 07:44:28
STRAND 1 19 Dec 07:32:53 07:37:19 30° 264° (W) 07:41:46 437.568
VERMONT LUNAR 19 Dec 07:43:36 07:47:06 63° 191° (S) 07:50:36 437.305
AO-7 19 Dec 07:45:54 07:49:39 14° 316° (NW) 07:53:25 29.400- 29.500
PHONESAT 2.4 19 Dec 07:49:12 07:52:49 71° 188° (S) 07:56:26 2401.200-2431.200
CUTE-I 19 Dec 07:51:40 07:56:32 38° 292° (WNW) 08:01:24 437.470
SO-50 19 Dec 07:53:05 07:57:03 25° 248° (WSW) 08:01:01 436.795
CUBESAT XI-V 19 Dec 08:06:47 08:08:10 11° 271° (W) 08:09:33 437.345
BRITE-PL 19 Dec 08:27:33 08:30:43 18° 93° (E) 08:34:01 437.365/2234.400
AAUSAT CUBESAT 2 19 Dec 08:48:53 08:51:14 14° 91° (E) 08:53:34 437.432
CANX-2 19 Dec 08:55:25 08:59:14 30° 96° (E) 09:03:01 2200.000
Cubesat XI-IV 19 Dec 09:01:16 09:02:01 10° 304° (NW) 09:02:46 437.490
GOMX 1 19 Dec 09:01:50 09:05:56 28° 96° (E) 09:10:15 467.674
HO-68 19 Dec 09:09:42 09:16:35 48° 100° (E) 09:23:24 435.675
TIGRISAT 19 Dec 09:18:58 09:21:38 16° 63° (ENE) 09:24:19 435.000
COMPASS 1 19 Dec 09:21:43 09:25:43 38° 98° (E) 09:29:41 437.405
VERMONT LUNAR 19 Dec 09:22:16 09:25:06 23° 207° (SSW) 09:27:55 437.305
SEEDS 19 Dec 09:24:55 09:29:06 50° 99° (E) 09:33:15 437.485
CUTE 1.7 + AOD 2 19 Dec 09:26:08 09:30:25 61° 101° (E) 09:34:40 437.475
PHONESAT 2.4 19 Dec 09:28:03 09:31:16 30° 204° (SSW) 09:34:28 2401.200-2431.200
DX 1 19 Dec 09:32:44 09:35:31 17° 93° (E) 09:38:16 434.975-435.025
DOVE 4 19 Dec 09:34:25 09:38:59 45° 99° (E) 09:43:46 437.250
POPSAT HIP 1 19 Dec 09:38:02 09:40:38 16° 65° (ENE) 09:43:15 437.405
MaSat-1 19 Dec 09:41:28 09:43:49 83° 292° (WNW) 09:46:04 437.345
UNISAT 6 19 Dec 09:45:52 09:49:41 30° 69° (ENE) 09:53:35 437.425
YUBILEINY 19 Dec 09:47:48 09:52:58 17° 60° (ENE) 09:58:07 435.215
DELFI C3 19 Dec 09:48:14 09:51:46 27° 96° (E) 09:55:15 145.870
CUSAT 1 19 Dec 09:54:04 09:57:18 37° 90° (E) 10:01:31 437.405
Oscar 11 19 Dec 09:57:01 10:01:10 41° 98° (E) 10:05:17 145.826/435.025
HUMSAT D 19 Dec 10:01:49 10:03:37 12° 90° (E) 10:05:26 437.325/437.525
UKube-1 19 Dec 10:04:36 10:08:36 35° 98° (E) 10:12:34 .
BRITE-PL 19 Dec 10:04:56 10:09:24 49° 287° (WNW) 10:14:14 437.365/2234.400
DUCHIFAT 1 19 Dec 10:05:35 10:09:17 31° 70° (ENE) 10:13:00 145.980
CUBEBUG 2 19 Dec 10:05:39 10:09:53 35° 97° (E) 10:14:12 437.445
CINEMA 3 19 Dec 10:11:32 10:16:13 65° 101° (E) 10:21:05 145.822/145.860
BUGSAT 1 19 Dec 10:12:25 10:15:59 29° 70° (ENE) 10:19:31 437.445
ANTELSAT 19 Dec 10:17:02 10:21:20 66° 74° (ENE) 10:25:47 437.575/2403.000
QB50P2 19 Dec 10:17:38 10:21:37 43° 72° (ENE) 10:25:38 145.880/145.840
VELOX 1 19 Dec 10:20:27 10:23:32 18° 93° (E) 10:26:37 145.980
AAUSAT CUBESAT 2 19 Dec 10:23:04 10:27:10 47° 287° (WNW) 10:31:13 437.432
ZACube-1 19 Dec 10:23:08 10:27:22 38° 98° (E) 10:31:38 437.345
POLYITAN 1 19 Dec 10:25:46 10:29:51 53° 73° (ENE) 10:33:59 437.675
NANOSAT C BR1 19 Dec 10:29:22 10:33:30 58° 74° (ENE) 10:37:38 145.865
CANX-2 19 Dec 10:31:33 10:35:02 24° 292° (WNW) 10:38:31 2200.000
DANDE 19 Dec 10:38:08 10:41:27 76° 281° (W) 10:45:53 436.750
GOMX 1 19 Dec 10:39:53 10:44:01 31° 290° (WNW) 10:48:23 467.674
QB50P1 19 Dec 10:43:24 10:47:37 85° 76° (ENE) 10:51:51 145.935-145.965
UWE-3 19 Dec 10:46:54 10:51:30 82° 103° (ESE) 10:56:10 435.000/436.395/437.385
FUNcube-1 19 Dec 10:50:10 10:54:42 74° 102° (ESE) 10:59:16 145.935
O/OREOS (USA 219) 19 Dec 10:52:02 10:56:23 45° 63° (ENE) 11:00:43 437.305
TIGRISAT 19 Dec 10:53:45 10:57:57 49° 261° (W) 11:02:16 435.000
HO-68 19 Dec 10:57:47 11:04:03 35° 298° (WNW) 11:10:19 435.675
COMPASS 1 19 Dec 10:58:09 11:01:09 19° 294° (WNW) 11:04:09 437.405
AISAT 19 Dec 11:01:47 11:06:07 53° 100° (E) 11:10:27 437.250
SEEDS 19 Dec 11:02:01 11:04:30 15° 296° (WNW) 11:07:00 437.485
CUTE 1.7 + AOD 2 19 Dec 11:03:49 11:05:50 13° 297° (WNW) 11:07:50 437.475
DX 1 19 Dec 11:07:50 11:11:57 44° 289° (WNW) 11:16:04 434.975-435.025
POPSAT HIP 1 19 Dec 11:12:09 11:16:11 45° 261° (W) 11:20:14 437.405
DOVE 4 19 Dec 11:12:59 11:16:28 21° 293° (WNW) 11:20:05 437.250
CUBEBUG 1 19 Dec 11:13:51 11:17:30 26° 96° (E) 11:21:07 437.445
RS-15 19 Dec 11:17:00 11:26:09 32° 105° (ESE) 11:35:13 29.354- 29.394
UNISAT 6 19 Dec 11:22:57 11:26:29 24° 266° (W) 11:30:07 437.425
DELFI C3 19 Dec 11:23:34 11:26:56 24° 292° (WNW) 11:30:16 145.870
50 SAT 19 Dec 11:25:08 11:29:18 86° 102° (ESE) 11:33:28 437.505
Oscar 11 19 Dec 11:34:00 11:37:01 19° 295° (WNW) 11:40:02 145.826/435.025
HUMSAT D 19 Dec 11:35:31 11:39:46 59° 286° (WNW) 11:44:02 437.325/437.525
CUSAT 1 19 Dec 11:38:45 11:40:56 14° 300° (WNW) 11:43:27 437.405
UKube-1 19 Dec 11:41:17 11:44:32 21° 294° (WNW) 11:47:47 .
DUCHIFAT 1 19 Dec 11:41:55 11:45:10 22° 266° (W) 11:48:27 145.980
YUBILEINY 19 Dec 11:42:32 11:51:17 81° 82° (E) 11:59:59 435.215
CUBEBUG 2 19 Dec 11:42:42 11:46:25 25° 292° (WNW) 11:50:11 437.445
BUGSAT 1 19 Dec 11:48:17 11:51:29 22° 265° (W) 11:54:40 437.445
CINEMA 3 19 Dec 11:50:22 11:52:56 15° 296° (WNW) 11:55:34 145.822/145.860
ESTCUBE 1 19 Dec 11:52:52 11:57:23 75° 102° (ESE) 12:01:52 437.505/2401.250
QB50P2 19 Dec 11:55:10 11:57:45 16° 268° (W) 12:00:20 145.880/145.840
VELOX 1 19 Dec 11:56:08 12:00:17 40° 289° (WNW) 12:04:25 145.980
ANTELSAT 19 Dec 11:57:25 11:58:38 11° 271° (W) 11:59:51 437.575/2403.000
ZACube-1 19 Dec 12:00:04 12:03:30 22° 293° (WNW) 12:06:58 437.345
POLYITAN 1 19 Dec 12:04:15 12:06:08 13° 269° (W) 12:08:01 437.675
NANOSAT C BR1 19 Dec 12:08:15 12:09:44 12° 270° (W) 12:11:14 145.865
Oscar 19 19 Dec 12:23:54 12:28:13 28° 66° (ENE) 12:32:33 437.125/150
UWE-3 19 Dec 12:26:01 12:27:23 11° 299° (WNW) 12:28:46 435.000/436.395/437.385
SPROUT 19 Dec 12:27:32 12:31:34 39° 98° (E) 12:35:35 437.525
FUNcube-1 19 Dec 12:28:44 12:30:27 12° 298° (WNW) 12:32:11 145.935
TISAT 1 19 Dec 12:29:03 12:33:05 43° 99° (E) 12:37:06 437.305
O/OREOS (USA 219) 19 Dec 12:32:26 12:35:24 17° 260° (W) 12:38:22 437.305
ITAMSAT 1 19 Dec 12:38:08 12:41:01 15° 60° (ENE) 12:43:54 435.822/435.867
AISAT 19 Dec 12:39:43 12:42:19 16° 297° (WNW) 12:44:56 437.250
CUBEBUG 1 19 Dec 12:50:08 12:53:49 28° 292° (WNW) 12:57:29 437.445
BEESAT 19 Dec 13:01:29 13:04:10 15° 91° (E) 13:06:51 436.000
AO-7 19 Dec 13:13:30 13:14:15 10° 40° (NE) 13:14:59 29.400- 29.500
BEESAT 2 19 Dec 13:15:43 13:18:32 18° 111° (ESE) 13:21:23 435.950
RS-15 19 Dec 13:26:39 13:37:33 71° 307° (NW) 13:48:33 29.354- 29.394
ESTCUBE 1 19 Dec 13:32:05 13:33:37 12° 299° (WNW) 13:35:10 437.505/2401.250
YUBILEINY 19 Dec 13:41:08 13:46:58 21° 281° (WNW) 13:52:50 435.215
PCSat 19 Dec 14:00:51 14:05:49 39° 111° (ESE) 14:10:50 145.827
Gurwin Techsat 1B 19 Dec 14:01:44 14:06:52 52° 71° (ENE) 14:12:01 435.225
Oscar 19 19 Dec 14:02:42 14:07:23 36° 263° (W) 14:12:08 437.125/150
SPROUT 19 Dec 14:04:21 14:07:23 19° 294° (WNW) 14:10:25 437.525
TISAT 1 19 Dec 14:05:51 14:08:34 17° 295° (WNW) 14:11:18 437.305
ITUPSAT 1 19 Dec 14:12:10 14:16:58 78° 103° (ESE) 14:21:43 437.325
SWISSCUBE 19 Dec 14:12:17 14:17:05 86° 103° (ESE) 14:21:50 437.505
AIST 2 19 Dec 14:12:52 14:16:42 34° 115° (ESE) 14:20:35 435.215
BEESAT 3 19 Dec 14:13:38 14:17:44 85° 121° (ESE) 14:21:54 437.485
ITAMSAT 1 19 Dec 14:14:43 14:19:53 73° 257° (WSW) 14:25:05 435.822/435.867
KKS-1 19 Dec 14:26:59 14:30:33 23° 95° (E) 14:34:06 437.445
STARS 19 Dec 14:27:04 14:29:40 15° 92° (E) 14:32:17 437.465
BEESAT 19 Dec 14:37:41 14:42:23 58° 287° (WNW) 14:47:02 436.000
AUBIESAT-1 19 Dec 14:40:29 14:44:47 53° 104° (ESE) 14:48:41 437.475
ISS 19 Dec 14:42:55 14:46:13 75° 143° (SE) 14:49:30 145.825
JAS-2 19 Dec 14:51:26 14:54:33 13° 55° (NE) 14:57:34 435.910
BEESAT 2 19 Dec 14:52:31 14:56:27 43° 308° (NW) 15:00:28 435.950
HORYU 2 19 Dec 14:54:50 14:59:15 66° 74° (ENE) 15:03:44 437.375
AO-7 19 Dec 14:57:08 15:04:52 45° 62° (ENE) 15:12:38 29.400- 29.500
M-CUBED/EXP-1 PRIME 19 Dec 15:05:02 15:09:29 73° 290° (WNW) 15:13:31 437.505
GONETS M04 19 Dec 15:41:58 15:48:05 20° 62° (ENE) 15:54:08
Gurwin Techsat 1B 19 Dec 15:43:20 15:47:07 20° 268° (W) 15:50:56 435.225
RS-15 19 Dec 15:43:32 15:52:20 27° 336° (NNW) 16:01:18 29.354- 29.394
PCSat 19 Dec 15:44:29 15:49:18 32° 310° (NW) 15:54:08 145.827
AIST 2 19 Dec 15:51:45 15:55:22 26° 313° (NW) 15:59:01 435.215
ITUPSAT 1 19 Dec 15:52:12 15:54:11 13° 300° (WNW) 15:56:11 437.325
SWISSCUBE 19 Dec 15:52:45 15:54:13 11° 301° (WNW) 15:55:41 437.505
BEESAT 3 19 Dec 15:54:28 15:56:30 13° 321° (NW) 15:58:34 437.485
STARS 19 Dec 16:02:08 16:06:25 49° 288° (WNW) 16:10:42 437.465
KKS-1 19 Dec 16:03:13 16:07:14 33° 291° (WNW) 16:11:14 437.445
AIST 1 19 Dec 16:15:39 16:18:55 21° 88° (E) 16:22:11
AUBIESAT-1 19 Dec 16:16:36 16:19:13 16° 303° (WNW) 16:21:43 437.475
ISS 19 Dec 16:20:27 16:23:05 22° 341° (NNW) 16:25:44 145.825
JAS-2 19 Dec 16:30:53 16:38:28 66° 72° (ENE) 16:45:26 435.910
HORYU 2 19 Dec 16:34:53 16:36:22 11° 270° (W) 16:37:52 437.375
AO-7 19 Dec 16:49:51 16:57:37 43° 261° (W) 17:05:28 29.400- 29.500
Cubesat XI-IV 19 Dec 17:01:10 17:05:23 24° 64° (ENE) 17:09:36 437.490
MOZHAYETS 4 19 Dec 17:03:08 17:07:23 35° 97° (E) 17:11:35
CUTE-I 19 Dec 17:33:46 17:38:49 46° 70° (ENE) 17:43:52 437.470
GONETS M04 19 Dec 17:37:18 17:46:07 87° 264° (W) 17:54:49
AIST 1 19 Dec 17:52:25 17:56:21 32° 284° (WNW) 18:00:18
ISS 19 Dec 17:58:48 18:00:35 14° 1° (N) 18:02:23 145.825
RS-15 19 Dec 18:01:55 18:09:58 22° 12° (NNE) 18:18:13 29.354- 29.394
STRAND 1 19 Dec 18:07:20 18:07:45 10° 88° (E) 18:08:09 437.568
PRISM 19 Dec 18:14:39 18:18:13 27° 96° (E) 18:21:45 437.425
JAS-2 19 Dec 18:17:41 18:23:47 26° 267° (W) 18:29:34 435.910
CUBESAT XI-V 19 Dec 18:23:31 18:26:39 18° 92° (E) 18:29:46 437.345
Cubesat XI-IV 19 Dec 18:40:07 18:45:11 45° 261° (W) 18:50:17 437.490
MOZHAYETS 4 19 Dec 18:40:44 18:44:25 24° 293° (WNW) 18:48:04
CUSAT 1 19 Dec 18:52:45 18:53:12 10° 58° (ENE) 18:53:40 437.405
MaSat-1 19 Dec 19:12:11 19:14:32 51° 246° (WSW) 19:17:01 437.345
CUTE-I 19 Dec 19:14:58 19:19:05 23° 266° (W) 19:23:13 437.470
DANDE 19 Dec 19:34:54 19:40:09 20° 65° (ENE) 19:45:52 436.750
ISS 19 Dec 19:35:19 19:38:03 24° 21° (NNE) 19:40:47 145.825
GONETS M04 19 Dec 19:36:34 19:41:33 17° 284° (WNW) 19:46:31
HO-68 19 Dec 19:38:30 19:44:55 37° 63° (ENE) 19:51:20 435.675
BRITE-PL 19 Dec 19:39:52 19:42:38 17° 66° (ENE) 19:45:23 437.365/2234.400
AAUSAT CUBESAT 2 19 Dec 19:41:59 19:43:12 11° 62° (ENE) 19:44:25 437.432
STRAND 1 19 Dec 19:42:28 19:47:36 88° 285° (WNW) 19:52:41 437.568
CANX-2 19 Dec 19:49:09 19:52:29 23° 67° (ENE) 19:55:51 2200.000
PRISM 19 Dec 19:50:16 19:53:39 24° 293° (WNW) 19:57:00 437.425
CUBESAT XI-V 19 Dec 19:59:56 20:04:18 44° 288° (WNW) 20:08:40 437.345
GOMX 1 19 Dec 20:11:16 20:14:44 26° 69° (ENE) 20:18:13 467.674
COMPASS 1 19 Dec 20:13:48 20:17:23 28° 69° (ENE) 20:20:59 437.405
RS-15 19 Dec 20:15:27 20:26:10 47° 44° (NE) 20:37:16 29.354- 29.394
SEEDS 19 Dec 20:17:30 20:21:22 36° 71° (ENE) 20:25:17 437.485
CUTE 1.7 + AOD 2 19 Dec 20:19:17 20:23:19 43° 72° (ENE) 20:27:24 437.475
DX 1 19 Dec 20:29:10 20:31:48 16° 64° (ENE) 20:34:26 434.975-435.025
SO-50 19 Dec 20:29:52 20:31:36 12° 107° (ESE) 20:33:21 436.795
CUSAT 1 19 Dec 20:30:23 20:37:47 51° 75° (ENE) 20:45:59 437.405
DELFI C3 19 Dec 20:37:40 20:40:33 19° 66° (ENE) 20:43:26 145.870
DOVE 4 19 Dec 20:41:09 20:45:01 41° 72° (ENE) 20:48:58 437.250
Oscar 11 19 Dec 20:52:06 20:55:58 33° 70° (ENE) 20:59:52 145.826/435.025
UKube-1 19 Dec 21:00:00 21:03:50 32° 69° (ENE) 21:07:40 .
CUBEBUG 2 19 Dec 21:04:54 21:08:27 27° 69° (ENE) 21:12:04 437.445
ISS 19 Dec 21:11:37 21:14:51 60° 219° (SW) 21:18:04 145.825
CINEMA 3 19 Dec 21:14:04 21:18:08 57° 74° (ENE) 21:22:18 145.822/145.860
AAUSAT CUBESAT 2 19 Dec 21:14:05 21:18:16 70° 259° (WSW) 21:22:31 437.432
DANDE 19 Dec 21:16:44 21:24:21 86° 81° (E) 21:33:04 436.750
BRITE-PL 19 Dec 21:17:00 21:20:55 37° 262° (W) 21:24:47 437.365/2234.400
VELOX 1 19 Dec 21:19:00 21:21:59 18° 65° (ENE) 21:24:59 145.980
ZACube-1 19 Dec 21:19:59 21:23:36 29° 69° (ENE) 21:27:17 437.345
STRAND 1 19 Dec 21:24:15 21:26:00 12° 302° (WNW) 21:27:44 437.568
CANX-2 19 Dec 21:24:27 21:28:15 31° 264° (W) 21:32:06 2200.000
HO-68 19 Dec 21:25:40 21:32:28 45° 261° (W) 21:39:18 435.675
BEESAT 2 19 Dec 21:35:16 21:37:52 16° 42° (NE) 21:40:27 435.950
UWE-3 19 Dec 21:44:34 21:48:41 66° 75° (ENE) 21:52:56 435.000/436.395/437.385
FUNcube-1 19 Dec 21:46:29 21:50:34 57° 74° (ENE) 21:54:45 145.935
GOMX 1 19 Dec 21:49:30 21:52:51 24° 265° (W) 21:56:14 467.674
COMPASS 1 19 Dec 21:49:34 21:53:03 25° 265° (W) 21:56:34 437.405
SEEDS 19 Dec 21:54:14 21:57:18 19° 267° (W) 22:00:24 437.485
CUTE 1.7 + AOD 2 19 Dec 21:56:48 21:59:28 16° 268° (W) 22:02:08 437.475
AISAT 19 Dec 22:00:05 22:04:20 48° 72° (ENE) 22:08:36 437.250
DX 1 19 Dec 22:03:26 22:07:38 49° 260° (W) 22:11:52 434.975-435.025
SO-50 19 Dec 22:06:55 22:11:26 75° 304° (NW) 22:16:08 436.795
ANTELSAT 19 Dec 22:10:29 22:13:14 15° 91° (E) 22:15:59 437.575/2403.000
CUBEBUG 1 19 Dec 22:10:41 22:14:09 23° 67° (ENE) 22:17:36 437.445
DELFI C3 19 Dec 22:11:45 22:15:33 36° 262° (W) 22:19:23 145.870
50 SAT 19 Dec 22:13:33 22:17:27 53° 74° (ENE) 22:21:25 437.505
CUSAT 1 19 Dec 22:13:47 22:20:43 38° 270° (W) 22:28:17 437.405
DOVE 4 19 Dec 22:20:35 22:23:03 15° 268° (W) 22:25:32 437.250
HUMSAT D 19 Dec 22:27:45 22:31:52 82° 258° (WSW) 22:36:04 437.325/437.525
RS-15 19 Dec 22:27:56 22:38:53 58° 247° (WSW) 22:50:19 29.354- 29.394
Oscar 11 19 Dec 22:28:49 22:32:11 22° 266° (W) 22:35:34 145.826/435.025
QB50P1 19 Dec 22:30:25 22:32:39 14° 91° (E) 22:34:52 145.935-145.965
BEESAT 3 19 Dec 22:33:25 22:37:32 53° 54° (NE) 22:41:34 437.485
AIST 2 19 Dec 22:34:46 22:38:26 26° 47° (NE) 22:42:02 435.215
UKube-1 19 Dec 22:36:34 22:40:00 23° 265° (W) 22:43:27 .
CUBEBUG 2 19 Dec 22:41:44 22:45:08 24° 266° (W) 22:48:37 437.445
TIGRISAT 19 Dec 22:45:27 22:49:44 34° 97° (E) 22:54:01 435.000
PCSat 19 Dec 22:48:28 22:53:24 34° 51° (NE) 22:58:17 145.827
YUBILEINY 19 Dec 22:50:47 22:56:09 18° 77° (ENE) 23:01:30 435.215
ESTCUBE 1 19 Dec 22:52:34 22:57:04 70° 75° (ENE) 23:01:36 437.505/2401.250
VELOX 1 19 Dec 22:54:01 22:58:14 44° 261° (W) 23:02:29 145.980
CINEMA 3 19 Dec 22:54:25 22:55:46 11° 271° (W) 22:57:08 145.822/145.860
ZACube-1 19 Dec 22:56:39 22:59:59 23° 266° (W) 23:03:23 437.345
POPSAT HIP 1 19 Dec 22:57:48 23:01:29 28° 96° (E) 23:05:09 437.405
DANDE 19 Dec 23:01:48 23:07:12 21° 275° (W) 23:13:02 436.750
BEESAT 2 19 Dec 23:12:24 23:16:34 68° 240° (WSW) 23:20:41 435.950
UNISAT 6 19 Dec 23:13:48 23:18:31 69° 102° (ESE) 23:23:13 437.425
TISAT 1 19 Dec 23:21:58 23:25:44 33° 70° (ENE) 23:29:31 437.305
SPROUT 19 Dec 23:22:11 23:25:56 31° 70° (ENE) 23:29:42 437.525
UWE-3 19 Dec 23:25:32 23:25:44 10° 271° (W) 23:25:55 435.000/436.395/437.385
FUNcube-1 19 Dec 23:25:49 23:27:19 12° 270° (W) 23:28:51 145.935
DUCHIFAT 1 19 Dec 23:25:57 23:30:09 58° 101° (E) 23:34:21 145.980
BUGSAT 1 19 Dec 23:29:43 23:33:40 50° 100° (E) 23:37:37 437.445
AISAT 19 Dec 23:38:37 23:41:14 15° 268° (W) 23:43:51 437.250
QB50P2 19 Dec 23:38:45 23:43:02 84° 104° (ESE) 23:47:19 145.880/145.840
SWISSCUBE 19 Dec 23:44:51 23:46:35 12° 60° (ENE) 23:48:19 437.505
ITUPSAT 1 19 Dec 23:45:32 23:46:43 11° 59° (ENE) 23:47:54 437.325
ANTELSAT 19 Dec 23:45:44 23:50:21 56° 287° (WNW) 23:54:58 437.575/2403.000
CUBEBUG 1 19 Dec 23:46:26 23:50:21 32° 263° (W) 23:54:16 437.445
POLYITAN 1 19 Dec 23:47:14 23:51:32 79° 284° (WNW) 23:55:49 437.675
NANOSAT C BR1 19 Dec 23:50:21 23:54:36 74° 285° (WNW) 23:58:51 145.865
SO-50 19 Dec 23:50:37 23:52:51 13° 325° (NW) 23:55:07 436.795
50 SAT 19 Dec 23:51:37 23:53:01 12° 270° (W) 23:54:25 437.505
AUBIESAT-1 19 Dec 23:58:07 23:59:17 11° 53° (NE) 00:00:27 437.475
QB50P1 20 Dec 00:04:42 00:08:49 50° 287° (WNW) 00:12:56 145.935-145.965
BEESAT 20 Dec 00:08:15 00:11:33 19° 64° (ENE) 00:14:51 436.000
BEESAT 3 20 Dec 00:12:57 00:15:16 15° 251° (WSW) 00:17:33 437.485
AIST 2 20 Dec 00:13:12 00:17:06 34° 245° (WSW) 00:20:55 435.215
M-CUBED/EXP-1 PRIME 20 Dec 00:20:28 00:23:53 19° 58° (ENE) 00:27:19 437.505
TIGRISAT 20 Dec 00:22:28 00:26:18 26° 293° (WNW) 00:30:10 435.000
PCSat 20 Dec 00:31:53 00:36:48 36° 249° (WSW) 00:41:42 145.827
ESTCUBE 1 20 Dec 00:33:05 00:34:25 11° 271° (W) 00:35:44 437.505/2401.250
POPSAT HIP 1 20 Dec 00:33:47 00:37:17 25° 292° (WNW) 00:40:47 437.405
YUBILEINY 20 Dec 00:42:55 00:51:41 88° 277° (W) 01:00:28 435.215
RS-15 20 Dec 00:47:51 00:48:45 10° 266° (W) 00:49:39 29.354- 29.394
UNISAT 6 20 Dec 00:52:21 00:54:43 14° 298° (WNW) 00:57:05 437.425
TISAT 1 20 Dec 00:58:29 01:01:38 20° 266° (W) 01:04:47 437.305
SPROUT 20 Dec 00:58:39 01:02:02 23° 266° (W) 01:05:26 437.525
DUCHIFAT 1 20 Dec 01:03:29 01:05:32 13° 297° (WNW) 01:07:34 145.980
O/OREOS (USA 219) 20 Dec 01:04:16 01:08:35 51° 108° (ESE) 01:12:55 437.305
BUGSAT 1 20 Dec 01:06:42 01:08:45 14° 296° (WNW) 01:10:49 437.445
SWISSCUBE 20 Dec 01:18:56 01:23:45 83° 257° (WSW) 01:28:34 437.505
ITUPSAT 1 20 Dec 01:19:02 01:23:51 89° 76° (ENE) 01:28:41 437.325
STARS 20 Dec 01:25:08 01:27:33 15° 63° (ENE) 01:29:58 437.465
KKS-1 20 Dec 01:25:49 01:29:13 22° 66° (ENE) 01:32:37 437.445
AUBIESAT-1 20 Dec 01:28:34 01:33:22 75° 70° (ENE) 01:38:17 437.475
BEESAT 20 Dec 01:44:21 01:49:00 50° 260° (W) 01:53:40 436.000
M-CUBED/EXP-1 PRIME 20 Dec 01:53:40 01:58:24 57° 255° (WSW) 02:03:16 437.505
Oscar 19 20 Dec 02:13:34 02:18:48 80° 103° (ESE) 02:24:00 437.125/150
Gurwin Techsat 1B 20 Dec 02:18:40 02:22:35 21° 93° (E) 02:26:29 435.225
ITAMSAT 1 20 Dec 02:27:41 02:32:32 39° 98° (E) 02:37:21 435.822/435.867
YUBILEINY 20 Dec 02:44:02 02:49:47 19° 298° (WNW) 02:55:34 435.215
O/OREOS (USA 219) 20 Dec 02:45:23 02:48:18 17° 306° (NW) 02:51:14 437.305
HORYU 2 20 Dec 02:48:14 02:50:21 13° 91° (E) 02:52:27 437.375
STARS 20 Dec 02:59:16 03:03:33 55° 259° (W) 03:07:53 437.465
KKS-1 20 Dec 03:01:36 03:05:38 35° 262° (W) 03:09:43 437.445
AO-7 20 Dec 03:02:16 03:04:36 11° 86° (E) 03:06:55 29.400- 29.500
AUBIESAT-1 20 Dec 03:06:38 03:08:47 13° 266° (W) 03:10:57 437.475
VERMONT LUNAR 20 Dec 03:48:21 03:51:27 29° 156° (SSE) 03:54:33 437.305
Oscar 19 20 Dec 03:54:50 03:57:27 14° 300° (WNW) 04:00:03 437.125/150
Gurwin Techsat 1B 20 Dec 03:57:41 04:02:49 50° 289° (WNW) 04:07:54 435.225
PHONESAT 2.4 20 Dec 03:58:45 04:01:45 24° 154° (SSE) 04:04:45 2401.200-2431.200
AIST 1 20 Dec 03:59:11 04:03:26 59° 80° (E) 04:07:37
MOZHAYETS 4 20 Dec 04:05:17 04:09:27 34° 70° (ENE) 04:13:38
ITAMSAT 1 20 Dec 04:07:35 04:11:49 26° 295° (WNW) 04:16:01 435.822/435.867
HORYU 2 20 Dec 04:22:56 04:27:24 60° 287° (WNW) 04:31:50 437.375
GONETS M04 20 Dec 04:44:23 04:50:42 23° 79° (E) 04:57:00
AO-7 20 Dec 04:50:29 04:58:51 67° 105° (ESE) 05:07:08 29.400- 29.500
SO-50 20 Dec 04:58:50 05:02:04 17° 39° (NE) 05:05:18 436.795
PRISM 20 Dec 05:05:52 05:09:10 22° 67° (ENE) 05:12:27 437.425
STRAND 1 20 Dec 05:21:39 05:24:55 17° 62° (ENE) 05:28:10 437.568
VERMONT LUNAR 20 Dec 05:26:00 05:29:32 71° 172° (S) 05:33:03 437.305
JAS-2 20 Dec 05:26:34 05:32:04 50° 99° (E) 05:37:08 435.910
CUBESAT XI-V 20 Dec 05:27:27 05:30:43 19° 65° (ENE) 05:33:59 437.345
PHONESAT 2.4 20 Dec 05:36:32 05:40:08 66° 170° (S) 05:43:44 2401.200-2431.200
AIST 1 20 Dec 05:39:26 05:40:29 11° 277° (W) 05:41:33
MOZHAYETS 4 20 Dec 05:42:56 05:46:42 24° 266° (W) 05:50:30
CUTE-I 20 Dec 05:51:49 05:55:21 18° 92° (E) 05:58:52 437.470
